Location: Newark
(49.2191°N, 12.6671°E)
Time: 05:11:10
(UTC+00:00)

Transit 4A - Pass Details

Date: 02 February 2020
Orbit: 872 x 973 km, 66.8° (Epoch: 19 February)

Event Time Altitude Azimuth Distance (km) Brightness Sun altitude
Rises 14:32:38 0° 307° (NW) 3,470 11.0 11.7°
Reaches altitude 10° 14:38:08 10° 265° (W) 2,533 11.2 11.1°
Maximum altitude 14:38:35 10° 260° (W) 2,527 11.3 11.0°
Drops below altitude 10° 14:39:02 10° 256° (WSW) 2,534 11.5 11.0°
Sets 14:44:36 0° 213° (SSW) 3,487 12.6 10.3°
